Theta_e
318 318 318 322 320 314 317 318 318 320 319 321 321 322 322 327 328 323 332 330 331 332 331 331 330 329 323 317 317 314 312 311 311 312 314 321 331 332 333 330 324 313 309 308 311 316 317 323 323
318 317 319 323 317 314 315 316 318 319 320 320 322 324 325 331 331 333 330 330 330 331 331 332 331 330 324 319 319 318 319 316 312 310 312 315 327 329 330 325 318 311 308 308 311 312 316 320 320
316 317 322 316 312 315 315 316 317 318 319 320 321 323 326 331 331 331 330 330 330 330 331 331 332 331 327 321 320 321 322 321 319 315 310 311 325 327 324 318 313 309 307 308 310 313 316 318 319
318 320 319 314 317 316 315 316 317 317 319 321 321 325 328 331 332 335 333 330 330 330 331 331 331 331 329 324 321 321 323 322 322 319 316 311 312 315 314 310 309 308 307 308 310 312 317 322 323
320 320 315 318 317 316 316 318 318 316 318 320 322 322 332 333 337 337 338 334 330 330 331 332 331 331 331 327 323 322 323 323 323 321 319 317 314 311 310 308 308 307 307 308 310 313 319 326 324
319 317 315 317 316 315 316 320 318 316 317 319 323 326 333 335 337 338 338 338 336 335 335 333 331 331 331 329 326 325 324 324 324 323 321 319 318 316 313 308 307 306 306 308 310 314 316 320 322
317 313 315 318 317 316 315 318 317 316 317 319 321 322 329 337 338 338 339 338 337 336 335 334 331 330 331 331 329 327 326 325 325 324 323 321 319 319 317 312 308 306 306 306 309 312 315 317 319
320 314 318 317 316 317 316 317 317 318 316 318 319 322 327 333 336 338 337 336 337 336 336 336 333 330 331 331 330 329 328 327 326 325 325 323 321 321 320 316 311 306 305 306 307 310 312 313 315
318 313 314 317 316 317 316 316 317 318 318 318 318 320 321 322 334 339 337 336 335 335 335 336 334 330 330 330 330 330 329 328 327 327 326 325 323 321 318 315 312 308 305 305 306 307 308 310 311
314 312 314 314 314 315 316 317 318 317 317 317 317 320 321 321 332 338 338 336 334 333 334 334 335 330 330 331 330 330 330 329 329 328 327 327 325 323 320 317 315 312 309 307 306 306 307 308 310
315 312 313 314 315 316 316 315 316 315 313 316 317 318 321 323 328 334 337 337 334 335 333 332 334 332 330 330 330 330 330 330 329 329 328 327 327 325 322 321 319 317 314 312 311 310 310 311 314
315 315 315 315 315 315 315 316 315 315 317 317 317 317 318 320 321 322 328 332 335 334 334 333 332 332 332 331 331 331 331 330 330 330 329 328 328 326 324 323 323 321 320 318 317 317 316 316 316
314 313 314 315 315 314 315 314 314 315 316 317 317 317 318 319 319 319 319 325 333 334 334 334 333 331 331 330 330 331 330 331 330 330 330 329 329 327 325 324 323 323 322 321 321 321 320 319 318
314 313 313 314 314 314 313 312 314 314 315 316 316 316 317 318 319 319 320 321 326 332 335 335 334 330 331 333 332 331 331 329 332 332 331 330 329 329 326 324 323 323 322 321 321 321 320 320 319
314 313 312 312 313 313 314 309 311 313 315 315 316 316 317 318 318 319 317 317 319 322 330 334 333 332 330 331 332 332 332 331 332 333 331 330 330 330 329 326 324 323 322 321 320 320 320 320 319
312 309 309 310 312 314 311 308 309 315 314 313 315 315 316 316 316 317 317 318 318 322 326 330 331 329 331 330 330 332 332 332 332 333 333 332 330 329 329 329 326 324 323 321 320 321 320 320 320
309 308 311 311 311 312 311 310 311 315 315 314 314 315 315 315 316 316 316 316 317 318 320 323 326 327 330 332 331 329 331 331 331 332 333 332 331 329 329 330 330 326 324 323 321 321 320 321 319
310 312 311 311 312 312 312 310 309 315 313 314 314 315 316 316 316 315 315 315 316 316 318 321 324 327 330 332 333 332 330 330 332 332 332 331 330 331 329 329 329 329 327 325 324 321 320 319 319
309 312 313 312 313 313 311 310 309 313 313 313 314 314 314 314 315 316 316 316 316 316 316 317 322 326 330 332 334 333 332 330 331 332 331 330 329 329 331 329 329 329 329 327 325 323 319 318 317
311 312 312 311 312 312 311 310 309 309 311 313 313 313 314 314 314 314 315 316 317 316 316 316 317 321 325 329 331 332 332 332 330 333 331 332 328 328 328 330 329 330 329 328 326 325 322 319 319
312 311 312 311 311 310 310 307 308 309 311 313 314 313 314 315 316 315 315 315 316 316 316 316 316 316 319 322 329 332 333 333 332 330 334 333 330 329 328 330 328 327 328 328 327 325 325 322 320
312 311 312 312 310 309 309 307 308 309 308 308 313 312 313 314 315 315 316 316 315 316 316 316 316 316 317 320 324 327 328 329 327 328 329 331 333 331 330 329 328 327 327 326 328 326 325 323 321
311 311 312 312 310 312 310 309 307 307 309 308 309 312 316 316 316 316 316 316 317 316 316 316 316 316 316 317 320 322 326 327 328 327 327 327 331 331 330 329 328 326 326 326 326 327 326 324 324
310 311 309 307 306 308 308 307 305 308 310 311 311 313 313 315 314 314 314 314 314 314 314 316 316 316 316 317 318 319 319 323 325 326 326 325 325 328 330 327 326 325 325 324 324 325 324 325 324
310 308 308 309 309 308 307 308 307 308 308 310 310 311 312 313 314 315 315 314 314 315 314 314 316 316 315 316 316 317 320 323 323 323 323 322 322 322 324 326 327 327 325 323 322 322 323 326 324
309 307 308 307 310 309 308 310 310 309 309 310 313 313 314 315 315 315 315 315 315 315 314 313 314 314 315 315 315 315 315 317 318 318 318 317 316 316 317 318 317 316 316 317 318 317 317 319 321
311 310 307 308 296 306 308 308 308 308 309 311 312 314 314 315 314 315 314 314 315 315 314 314 314 313 313 313 313 313 313 313 313 313 313 313 313 313 313 314 314 314 314 313 313 312 313 317 316
309 308 311 308 307 306 308 308 309 311 310 310 310 313 314 314 314 314 314 314 314 314 314 315 314 314 313 313 314 314 314 313 313 312 313 312 312 312 312 312 313 313 313 313 313 313 311 313 315
310 310 310 309 307 307 306 308 305 309 310 309 311 313 313 313 313 314 313 313 313 314 314 314 314 315 315 315 315 314 314 314 314 314 314 314 313 313 312 312 312 312 312 312 313 313 311 311 313
309 309 310 310 309 306 308 310 307 308 307 309 311 311 312 312 313 313 313 313 313 314 314 314 314 314 314 314 314 313 314 314 314 314 314 313 313 313 312 312 311 311 311 311 311 311 310 309 312
Wind_Speed
8 8 9 3 4 5 0 1 2 3 3 2 5 9 9 5 3 3 16 20 25 21 23 19 14 11 11 10 12 14 15 14 14 14 14 16 16 12 8 7 7 10 14 17 19 19 19 18 16
7 8 4 2 4 3 3 1 5 3 7 11 12 8 5 2 2 10 31 22 23 22 21 18 14 11 11 11 12 13 14 14 14 14 14 14 15 10 7 7 8 11 15 17 17 16 17 17 14
7 4 1 4 4 4 5 4 6 8 8 4 5 6 3 4 6 25 18 24 25 23 19 16 15 11 10 10 11 12 12 12 13 13 13 13 14 8 7 8 9 11 14 16 16 17 16 15 13
5 2 4 4 2 1 7 6 7 8 5 5 12 7 4 3 18 14 21 23 23 21 17 15 14 12 10 9 9 11 11 11 11 12 12 11 10 7 8 8 9 12 14 15 16 15 15 14 14
4 3 4 3 1 0 2 12 12 4 6 7 7 4 4 15 11 12 19 21 22 21 18 16 15 14 11 9 8 8 9 9 10 10 10 9 8 6 7 7 9 12 14 15 15 15 14 16 13
2 3 4 2 2 0 3 14 11 6 7 8 9 9 7 14 16 14 18 18 18 19 17 17 16 15 13 11 9 7 7 7 8 8 8 8 7 6 7 7 8 11 13 14 14 14 12 12 13
5 4 4 4 4 1 4 13 12 9 9 6 13 5 8 18 18 18 17 14 16 16 16 18 17 17 15 12 10 8 7 7 7 7 6 6 6 6 6 6 8 10 11 13 14 13 12 11 12
3 5 2 1 2 4 5 5 7 12 6 11 9 6 7 22 22 23 20 18 15 15 15 17 18 18 17 15 12 10 9 9 8 7 6 5 5 5 6 7 8 9 11 12 12 13 12 10 11
3 4 1 1 4 4 9 4 5 5 10 6 7 8 5 20 28 30 27 24 21 19 20 19 20 20 19 18 15 14 12 10 10 9 7 5 4 4 5 7 8 9 10 11 12 11 10 9 8
4 4 8 2 3 4 6 4 11 6 8 4 7 9 13 22 32 35 34 31 28 25 24 21 19 23 22 21 19 16 14 13 12 10 9 7 5 5 5 7 8 9 9 11 11 10 9 8 7
4 5 5 2 5 5 5 3 7 9 4 11 15 15 19 24 27 33 33 32 30 27 24 24 21 24 24 23 20 19 18 16 15 13 11 10 7 7 7 8 9 9 10 11 10 9 8 7 6
4 3 3 6 4 4 4 2 4 12 8 4 16 15 20 24 26 28 32 33 31 31 29 25 22 22 23 22 22 20 21 20 18 17 16 14 11 9 10 10 9 9 9 9 8 6 6 6 6
3 1 2 4 3 3 3 3 4 11 14 10 5 13 21 23 23 24 25 31 32 33 32 30 27 26 24 23 23 22 23 22 21 21 19 17 15 13 11 12 11 11 10 10 7 6 5 5 6
4 4 3 3 2 2 1 1 1 6 11 18 14 16 21 25 24 24 27 29 35 35 35 34 32 28 29 28 27 27 26 23 23 24 23 20 19 16 15 15 16 15 14 13 9 8 7 7 7
5 3 1 5 4 2 1 5 8 14 8 7 19 15 19 25 26 29 27 30 31 33 34 37 35 32 31 32 31 30 30 28 28 26 26 24 23 20 18 19 20 19 18 17 15 12 12 12 12
3 5 2 2 7 3 4 7 4 3 8 16 14 18 21 23 26 26 28 30 31 33 35 35 35 35 34 32 31 33 32 32 30 28 28 30 27 24 23 23 23 23 22 21 20 16 18 15 15
5 3 3 4 9 4 4 6 6 4 4 9 11 17 21 22 25 29 28 29 31 32 33 34 35 34 34 33 33 33 35 34 33 32 31 30 31 29 26 28 27 27 27 26 26 22 22 22 21
6 4 4 4 5 1 3 8 10 19 16 18 18 22 24 26 28 25 26 27 29 30 32 33 34 35 35 35 36 36 35 36 36 36 34 33 32 33 32 30 30 32 33 30 30 28 26 26 24
5 4 3 2 3 4 7 7 11 22 21 23 27 28 30 31 29 28 25 26 29 32 33 33 35 37 39 42 42 41 41 39 39 40 38 36 35 33 35 35 34 34 37 33 33 32 32 30 30
3 2 4 2 1 3 4 10 10 13 21 29 29 28 29 31 30 30 28 28 29 31 34 36 36 38 40 43 44 44 41 42 39 42 42 40 39 39 38 38 39 38 38 39 38 36 39 37 36
5 5 3 4 1 1 3 8 6 5 7 14 21 22 20 19 17 16 21 25 27 32 32 36 37 38 38 40 44 46 46 45 43 45 44 44 42 42 41 41 41 41 42 42 40 41 43 43 41
5 5 3 2 3 4 2 5 5 7 10 8 23 17 14 13 15 14 13 14 19 25 26 34 39 40 38 40 44 45 46 48 45 45 45 46 44 44 44 42 41 42 42 43 46 44 47 42 48
6 3 2 2 3 2 3 1 7 4 8 10 14 6 9 11 10 7 5 6 9 12 16 22 35 42 41 40 41 42 45 46 45 43 43 45 48 47 45 44 43 43 44 46 47 48 49 51 49
6 6 7 5 3 3 7 6 5 4 4 4 7 9 9 8 8 7 5 6 10 12 16 20 23 32 39 39 39 40 40 42 43 43 42 43 43 44 48 48 47 46 46 47 49 49 51 51 53
4 6 2 3 2 6 2 2 7 7 6 2 6 9 9 9 11 11 10 9 11 11 11 13 17 20 27 33 36 36 38 39 41 41 40 40 41 42 42 45 48 50 50 50 51 54 54 57 56
7 8 6 7 4 4 1 5 5 1 4 9 10 13 14 15 15 18 19 19 16 13 9 9 12 15 18 23 27 30 32 36 37 37 37 38 39 39 38 39 41 43 47 51 55 55 56 56 62
5 4 5 6 3 3 4 5 10 6 4 12 14 16 16 19 20 23 24 27 28 23 17 14 13 15 16 18 22 25 27 29 31 31 31 34 35 35 36 36 38 39 41 44 48 52 54 56 55
5 7 3 3 2 4 4 4 6 3 3 8 11 16 17 16 16 22 17 21 24 24 24 23 16 12 11 12 12 13 16 19 22 24 26 28 29 31 32 33 35 35 37 39 41 45 48 52 55
3 3 3 5 5 5 1 5 7 5 9 7 7 14 18 23 26 25 15 20 20 21 21 20 19 15 7 5 7 13 15 16 18 21 23 25 26 29 31 33 34 34 34 35 39 42 45 48 53
3 6 6 5 4 3 3 7 5 8 12 9 10 15 22 26 25 19 20 20 18 19 21 21 21 20 18 17 17 20 18 19 24 27 28 29 29 30 33 33 36 35 33 34 37 40 41 44 49
Wind_Direction
247 260 284 311 55 66 260 130 142 120 68 72 78 106 122 88 146 194 143 152 158 158 153 156 157 140 125 117 110 103 102 103 108 113 118 126 120 119 113 84 66 86 98 104 107 108 102 93 93
223 248 280 105 84 73 277 240 137 163 143 120 90 100 64 99 122 147 151 157 163 163 153 160 162 149 133 125 109 102 102 101 102 108 118 124 128 121 110 84 77 97 104 111 114 112 107 102 100
213 225 220 94 113 153 180 167 171 134 141 141 106 94 102 126 162 150 164 155 166 166 158 164 162 152 137 125 113 111 107 104 102 107 114 121 127 130 102 82 89 105 113 118 120 116 112 100 96
197 178 70 83 111 297 170 174 175 136 123 118 124 74 92 130 151 160 156 158 169 170 166 166 166 163 154 136 125 118 115 112 108 106 107 118 135 124 107 100 106 115 121 124 126 124 115 108 102
186 79 60 64 305 88 80 166 163 131 146 132 141 151 116 142 157 157 161 167 174 174 176 177 177 173 164 155 145 131 124 118 113 107 105 108 117 118 112 108 115 123 129 132 135 134 128 121 117
100 88 64 100 268 22 170 168 154 131 153 147 118 124 149 180 174 172 173 169 180 178 178 183 181 181 178 175 165 152 144 134 127 119 111 111 115 119 119 123 128 130 137 141 143 145 142 139 131
116 85 178 178 177 217 192 166 148 159 158 182 155 114 154 162 175 176 178 176 175 183 183 186 186 187 187 183 179 171 166 161 153 140 127 115 120 133 132 138 139 140 149 154 154 154 152 148 139
132 95 127 202 167 205 176 129 156 156 197 149 178 172 179 181 175 174 170 179 190 190 199 196 196 195 194 192 193 191 184 180 175 165 155 138 129 136 147 155 154 152 156 159 163 163 163 160 151
141 70 154 234 158 194 167 136 129 157 160 179 188 176 187 176 171 175 180 185 195 200 205 213 205 203 203 203 201 200 197 193 192 188 181 167 153 146 152 154 153 155 162 163 168 172 172 172 160
104 119 196 200 147 181 179 176 157 151 161 200 188 187 168 172 174 182 187 190 195 205 206 215 215 210 208 207 207 207 205 206 207 204 200 192 181 172 170 165 158 160 165 170 175 176 177 178 179
146 174 199 151 112 132 175 185 174 152 216 211 207 192 181 180 186 191 197 201 201 206 213 215 223 216 213 212 212 213 214 213 213 213 215 207 203 195 187 183 174 175 176 179 181 181 187 191 194
135 171 180 162 142 140 168 189 217 206 218 223 229 214 199 195 196 201 203 206 206 207 214 218 219 223 218 220 220 224 222 219 220 219 220 217 212 208 195 191 190 187 183 187 188 192 196 201 202
149 142 149 159 163 169 213 202 252 250 230 206 197 213 212 211 212 213 214 210 209 212 216 220 221 219 220 218 219 223 227 232 230 227 226 225 223 211 203 199 200 199 200 197 204 211 228 224 221
152 155 163 220 228 177 226 167 99 269 236 233 235 226 222 221 224 221 217 214 212 215 220 224 228 224 216 220 219 221 225 231 236 233 232 229 229 220 216 214 210 209 206 202 215 232 237 242 228
132 132 26 233 218 198 174 298 229 265 250 232 228 225 228 228 227 230 230 222 220 223 222 226 230 232 227 219 221 225 226 230 234 236 235 235 232 229 224 224 222 219 216 212 215 230 241 243 235
83 51 109 256 161 191 128 264 269 341 257 231 234 232 231 236 239 239 239 238 232 227 226 229 232 233 233 229 225 225 228 232 239 238 238 233 233 235 232 232 231 229 226 225 225 227 234 237 244
6 189 199 305 204 142 153 254 247 173 356 307 266 252 249 250 244 244 245 247 241 237 233 232 232 233 232 233 234 231 229 230 237 239 238 240 236 237 238 236 237 233 231 233 232 236 231 230 228
190 198 224 219 215 155 186 257 280 280 288 278 270 264 261 255 257 261 257 251 248 244 242 240 237 238 237 237 237 237 237 232 235 239 240 240 242 237 236 239 241 238 234 236 236 236 232 230 229
148 153 177 236 206 155 226 255 265 276 284 276 272 268 265 263 266 262 258 256 252 248 244 243 240 239 238 235 234 235 235 236 232 235 238 239 243 245 237 241 242 242 240 245 243 238 233 227 223
218 226 234 293 72 165 277 267 256 258 264 271 278 280 276 273 268 265 259 255 252 250 247 245 245 242 241 240 242 242 244 244 239 236 240 241 240 243 243 240 243 243 244 241 242 240 233 228 228
179 175 200 217 15 284 329 292 311 293 260 285 281 279 286 280 281 276 266 260 258 254 252 248 248 247 245 244 242 242 242 244 246 242 238 240 240 243 247 245 244 247 246 247 250 242 241 236 230
184 205 183 176 78 239 52 284 305 269 291 284 280 305 306 295 288 290 285 273 263 257 262 257 251 250 250 245 245 247 249 249 252 248 247 239 237 243 248 251 252 251 250 252 249 252 245 244 238
212 151 138 105 119 35 324 67 273 290 277 285 298 331 48 52 55 45 9 308 299 278 270 266 255 249 249 249 250 253 253 256 257 256 254 249 243 244 245 245 248 250 252 254 256 251 245 245 247
139 75 44 50 68 296 213 169 286 221 223 328 35 67 43 44 19 5 355 323 306 289 277 267 262 256 251 250 252 255 258 258 259 260 258 258 254 248 246 248 250 253 254 255 257 255 259 253 250
87 86 334 339 356 230 52 139 246 264 245 297 31 30 25 23 22 7 348 330 320 313 295 279 265 255 255 253 254 260 261 262 263 265 265 263 261 256 253 249 249 250 253 255 256 258 258 252 250
185 155 162 199 200 269 261 236 244 254 270 11 46 75 65 45 32 26 22 13 358 337 321 293 282 269 261 258 259 262 263 263 265 266 267 266 264 262 262 260 257 257 257 256 257 256 257 256 253
187 186 166 104 28 55 236 290 306 317 37 78 63 50 45 56 63 47 37 30 26 18 2 337 309 288 273 262 259 261 263 263 265 267 268 268 267 266 264 262 259 258 257 258 257 257 256 254 254
157 162 80 1 149 254 258 250 220 195 177 62 44 48 47 46 28 8 15 21 21 15 18 9 359 333 294 285 287 283 276 271 271 268 265 266 268 268 268 266 264 263 262 261 259 259 260 255 255
137 163 108 129 156 182 254 258 222 214 113 111 71 49 35 11 2 356 358 3 7 6 3 1 0 3 9 345 328 329 319 300 287 279 275 271 270 270 268 268 268 266 265 264 264 262 261 258 256
157 176 154 152 234 232 160 250 136 116 112 87 73 358 344 344 343 342 347 347 348 349 345 342 338 326 319 307 301 309 310 297 289 284 281 275 271 270 270 270 269 267 266 267 267 265 262 259 255